Theta_e
316 315 314 314 316 318 321 323 323 324 324 324 322 319 323 322 318 315 318 318 319 324 320 325 316 314 315 317 317 318 316 318 319 317 318 320 318 318 320 322 321 326 325 330 334
316 315 314 314 316 319 321 322 324 325 324 323 320 320 322 322 319 317 319 319 314 313 312 315 313 314 315 317 316 316 315 318 317 316 316 318 319 318 320 321 330 330 330 334 333
316 315 313 315 316 318 320 321 323 323 317 316 317 320 321 321 321 321 320 321 319 313 314 322 318 313 315 316 316 316 316 318 317 318 320 318 318 318 319 317 328 334 335 334 332
317 315 314 315 316 316 319 320 322 320 315 318 319 320 320 320 324 323 322 322 323 318 316 323 324 313 315 315 316 317 317 317 317 317 319 318 318 317 318 317 319 324 332 333 332
317 315 314 314 315 316 318 321 322 317 316 317 317 319 318 319 321 314 322 324 324 324 312 311 313 314 314 315 316 315 316 317 317 317 319 318 317 316 316 318 320 323 328 330 332
317 316 315 314 315 316 317 319 321 317 316 315 315 317 317 315 321 313 317 323 325 323 314 314 313 314 315 315 314 316 316 315 315 315 316 315 315 317 315 316 323 324 325 327 331
317 316 314 314 315 316 317 319 320 319 314 314 314 313 312 318 317 312 315 322 325 322 321 313 313 313 314 314 315 315 313 313 314 315 315 315 314 313 315 315 317 325 325 328 331
317 316 314 315 315 316 317 318 318 319 317 314 314 313 312 311 313 312 317 317 326 319 320 313 311 313 313 314 314 314 312 313 313 314 314 313 314 313 314 315 314 316 321 327 329
318 316 314 314 315 315 316 317 317 316 316 315 313 313 311 311 312 312 315 318 320 318 312 312 312 312 313 310 311 313 312 314 313 313 312 312 313 311 312 312 313 313 316 319 322
318 315 314 314 314 315 316 316 316 313 312 312 312 312 311 310 312 311 313 314 313 314 312 311 312 310 309 308 312 311 313 313 312 312 312 310 313 310 312 311 312 313 315 318 320
318 315 314 314 314 315 316 314 313 313 312 311 312 308 309 310 310 310 311 312 311 312 311 311 310 312 310 309 311 311 312 312 311 311 312 310 310 309 312 313 311 312 314 315 314
317 315 314 313 314 315 314 312 311 311 312 311 310 310 311 311 310 310 312 312 312 312 311 311 311 310 311 310 311 311 311 311 311 311 312 311 312 310 310 311 313 313 313 313 313
317 315 314 313 314 315 313 310 310 309 309 310 310 309 310 311 311 310 312 311 311 311 311 312 312 311 312 311 311 309 310 310 310 311 311 310 309 312 310 311 312 312 312 312 312
316 315 314 314 315 315 311 310 310 309 306 310 309 309 309 311 311 310 311 312 310 311 311 310 311 311 311 311 310 310 311 311 310 309 308 307 306 307 307 308 310 311 311 312 312
316 315 314 313 314 314 310 312 310 310 307 309 309 310 309 311 311 310 311 311 311 310 309 310 310 310 310 311 309 311 311 310 310 310 308 310 305 304 306 309 308 310 312 311 312
315 314 314 313 313 312 310 313 310 311 309 310 308 310 309 310 310 310 310 310 311 310 310 309 309 310 311 310 310 310 311 310 310 309 309 308 305 305 307 309 308 311 312 312 312
315 314 313 313 312 311 312 312 309 307 308 310 308 309 309 310 310 309 309 309 309 310 311 309 310 309 310 310 310 310 308 309 310 309 308 306 305 306 306 307 309 310 311 311 312
314 314 314 312 311 311 313 311 304 306 309 309 309 309 308 310 310 309 308 310 308 309 309 310 310 308 309 310 310 309 308 308 310 311 309 305 309 309 308 311 312 312 312 311 311
313 314 313 311 310 309 311 310 308 308 310 310 309 309 309 310 310 309 309 310 308 307 309 310 310 309 308 310 310 309 310 309 307 298 307 305 306 308 309 309 310 310 311 311 311
313 312 311 310 309 310 309 309 309 308 310 308 309 308 309 309 309 308 309 309 310 308 309 308 310 309 309 309 309 309 308 309 306 306 308 307 307 306 308 310 308 308 310 311 311
309 310 311 310 308 310 309 308 309 311 310 310 310 309 308 309 308 309 309 309 309 309 308 310 311 310 308 309 310 308 307 308 309 307 308 306 306 304 307 310 309 309 311 311 310
301 304 310 310 310 310 310 308 310 311 312 311 310 309 308 309 310 310 310 310 310 309 309 310 309 310 309 309 308 308 308 308 308 308 308 309 308 309 306 309 310 310 310 311 311
300 300 308 310 309 310 309 309 309 312 312 313 312 311 308 309 310 310 310 309 309 308 309 310 310 310 310 309 309 309 308 308 308 305 306 307 307 307 306 308 310 309 311 311 310
300 303 304 307 306 308 309 309 310 312 311 313 312 311 310 309 310 311 312 311 309 309 310 310 311 310 311 309 309 309 308 307 308 308 307 306 307 308 306 307 308 309 311 311 310
299 299 299 306 305 307 308 309 310 312 312 313 313 312 311 310 311 310 312 311 310 309 309 309 309 309 310 310 309 309 309 307 308 310 309 309 306 307 305 307 309 310 310 311 310
299 299 299 300 302 307 308 307 310 311 313 314 314 313 312 311 310 311 311 310 310 310 309 309 307 309 309 311 310 310 308 308 309 308 307 306 306 305 309 308 310 310 310 309 310
297 299 299 300 302 308 307 308 308 310 312 312 313 313 313 313 312 311 311 310 310 309 310 310 310 309 308 307 308 309 309 308 308 308 309 308 309 304 307 308 309 310 310 311 311
Wind_Speed
28 25 27 25 34 33 37 37 24 24 24 19 15 13 17 28 33 29 25 18 18 24 15 26 9 6 5 5 5 2 3 2 4 6 5 14 4 7 10 11 6 4 16 25 28
29 26 24 29 32 32 33 31 26 28 28 20 17 15 16 20 31 33 34 24 21 18 19 23 12 4 5 2 4 2 4 5 4 7 6 13 11 10 7 12 11 17 20 30 31
29 25 25 32 33 31 34 31 24 23 22 17 13 14 17 24 22 30 38 32 24 17 16 20 17 8 5 3 4 4 5 3 3 3 23 16 11 9 19 3 16 31 34 29 32
30 23 28 30 31 33 31 29 26 26 20 16 12 16 19 19 8 13 36 37 34 18 13 19 16 8 4 2 7 3 7 1 0 2 19 11 16 8 11 5 18 21 26 29 33
31 26 29 30 31 33 33 28 27 24 21 16 13 17 21 15 8 3 21 33 40 31 16 15 15 19 6 5 6 4 3 5 4 4 16 14 7 6 12 13 20 21 22 26 31
32 28 31 30 31 32 34 28 29 27 23 19 15 15 17 6 17 1 16 36 38 36 21 15 12 17 11 6 6 7 8 7 8 3 6 10 4 6 9 16 25 21 19 22 26
34 31 29 30 30 31 32 28 29 29 25 19 19 16 11 14 18 3 13 33 38 36 28 18 17 11 3 2 12 12 6 2 6 6 4 13 2 3 17 16 22 22 17 18 20
36 33 32 29 30 31 29 26 28 26 26 22 18 13 5 13 11 7 17 22 40 31 23 15 18 11 2 4 5 6 5 4 3 8 3 3 5 5 17 18 18 19 20 22 21
39 34 33 32 32 29 28 27 24 24 24 22 20 10 5 8 14 8 17 27 33 28 16 7 15 9 6 5 2 2 4 3 2 6 3 2 3 7 14 16 17 17 21 20 18
39 37 36 34 34 32 31 30 25 25 23 19 11 7 9 11 21 15 18 16 15 23 12 11 11 5 3 4 10 5 3 3 6 7 2 5 2 5 12 15 17 20 22 22 21
40 40 38 35 36 37 37 37 29 11 32 10 20 7 6 13 17 18 24 15 13 18 7 8 4 14 8 7 5 5 5 7 1 4 4 8 6 8 12 12 13 18 20 21 19
42 42 40 38 38 39 41 29 30 16 12 9 11 4 17 16 9 21 32 19 6 13 10 4 13 7 8 8 8 4 7 4 2 2 3 5 8 5 11 11 16 19 19 21 21
38 43 42 42 40 39 44 16 11 31 10 8 8 19 9 11 7 26 32 19 17 8 12 8 4 9 12 6 10 6 7 6 7 3 2 5 6 5 5 6 11 12 16 18 20
41 44 43 44 41 41 40 24 24 16 4 6 9 10 16 10 4 26 33 18 7 18 14 7 14 17 6 10 9 8 6 7 12 6 5 4 4 7 7 6 7 13 15 14 16
45 46 46 49 34 46 41 18 28 13 5 11 7 15 21 10 17 16 35 11 14 9 7 6 10 8 6 7 8 6 8 9 4 5 5 3 2 6 8 5 8 13 14 16 17
43 46 48 45 34 45 31 15 16 4 5 7 10 9 8 7 6 14 21 9 10 7 4 3 2 4 6 2 7 8 7 8 5 3 1 5 6 5 6 13 5 15 19 20 19
41 56 51 42 41 46 29 20 4 5 5 8 7 8 10 6 5 5 15 8 7 11 12 3 2 2 3 6 4 7 6 2 2 0 6 2 4 8 7 7 11 17 25 22 18
37 47 48 33 40 43 31 5 4 6 10 5 8 14 8 11 3 7 10 10 7 9 6 5 4 7 4 6 8 5 8 6 6 4 4 2 6 5 2 5 19 32 28 23 19
39 48 49 32 43 49 31 11 9 9 7 9 9 16 5 6 8 6 13 18 6 7 7 7 3 1 1 2 10 5 4 4 7 3 3 4 4 4 3 5 17 26 28 25 24
32 41 39 40 53 47 15 12 4 8 9 16 7 7 7 17 7 9 15 13 8 9 2 6 5 2 1 2 1 6 8 3 2 5 3 4 3 5 7 12 10 16 26 29 26
15 20 38 50 52 35 16 9 6 1 21 7 6 7 8 10 7 13 17 5 18 9 7 3 4 1 3 5 9 3 3 2 5 5 5 2 6 7 17 17 18 21 32 32 29
4 3 38 55 13 10 12 10 7 5 5 4 5 5 11 13 6 9 12 5 27 15 8 3 5 4 6 1 2 1 7 5 5 6 1 3 5 2 6 17 25 26 32 32 30
3 3 30 43 11 15 9 9 4 3 3 3 4 4 5 10 6 4 6 1 8 12 11 7 2 4 4 3 1 4 4 5 5 4 6 5 6 1 1 14 24 28 34 35 33
2 2 4 16 2 16 14 19 15 8 5 4 3 3 5 8 2 9 4 1 3 6 10 9 4 7 8 7 7 7 8 7 6 3 4 7 4 5 7 12 19 27 36 38 36
4 3 4 5 4 16 13 15 15 6 3 6 2 3 5 5 4 5 4 3 4 12 5 6 7 5 2 4 4 8 8 9 7 19 9 16 9 6 10 13 29 34 37 40 40
4 2 3 2 6 14 19 9 21 6 7 4 5 6 2 5 6 8 9 5 8 1 6 2 2 3 1 3 2 3 8 11 19 12 9 2 7 8 20 20 24 33 37 39 44
4 7 3 7 3 8 11 16 11 8 2 7 8 6 5 4 4 5 9 16 12 9 5 10 5 4 4 0 3 3 12 12 11 8 18 14 22 7 5 17 27 31 42 48 49
Wind_Direction
208 207 211 211 199 197 191 192 181 193 195 200 205 195 207 205 194 196 196 173 170 173 180 189 210 265 233 206 194 184 70 279 261 169 180 158 129 87 109 122 86 111 162 165 158
203 203 214 199 197 196 194 192 189 188 188 193 196 201 205 216 207 211 197 177 162 168 173 175 175 249 242 226 186 140 119 233 271 151 172 156 144 125 119 112 93 112 132 152 158
200 201 195 194 194 196 193 196 183 181 169 179 188 180 196 204 206 222 207 197 178 162 177 186 176 308 238 231 199 186 183 253 343 148 157 150 152 143 139 154 163 144 149 160 164
200 198 189 195 194 195 193 191 184 174 167 170 173 177 175 181 190 252 211 206 195 184 155 164 185 293 210 208 222 165 248 134 280 89 150 147 152 144 167 151 186 170 165 166 172
198 193 189 197 194 195 193 186 182 169 168 165 157 170 167 184 211 283 203 196 201 205 172 163 203 233 206 176 234 213 182 136 135 121 145 142 139 134 131 118 170 167 170 172 179
197 192 189 192 189 192 192 187 183 175 168 161 149 150 168 197 202 3 185 197 201 190 180 201 211 214 203 191 162 235 194 152 152 154 111 130 135 151 161 141 154 166 174 177 183
193 189 186 183 187 188 187 185 179 176 176 164 154 159 169 198 179 222 188 192 199 187 196 208 195 244 218 60 244 152 106 107 149 177 132 124 57 190 164 164 154 174 180 184 188
190 186 180 177 182 183 185 183 180 178 179 179 168 178 227 174 190 171 178 185 191 200 214 225 207 250 221 172 142 144 89 139 238 160 180 161 212 221 176 181 174 176 183 191 191
183 183 175 177 183 177 178 175 174 177 175 175 171 187 239 194 199 174 168 184 186 187 201 182 193 219 158 120 77 175 174 166 158 200 152 163 188 206 179 187 178 180 186 190 189
180 178 174 179 176 170 170 169 165 158 151 147 173 191 210 199 190 200 167 169 172 168 182 195 191 158 134 137 197 164 169 170 163 201 188 153 242 195 188 201 194 184 187 186 191
186 176 173 175 174 171 163 152 137 143 159 166 182 222 223 174 191 194 172 169 159 182 169 203 165 194 181 148 193 148 200 169 308 183 133 192 185 211 197 201 182 181 170 178 192
185 174 172 175 174 174 169 159 166 170 160 162 190 78 140 151 149 169 166 151 187 176 168 203 216 179 166 186 220 173 195 165 5 43 126 178 229 220 195 209 187 174 185 186 180
190 173 172 171 175 175 176 167 169 155 143 194 183 186 158 169 159 169 170 177 172 190 189 202 215 180 189 186 204 187 184 187 161 144 1 109 312 218 208 181 180 168 166 177 188
190 177 172 170 173 176 170 156 158 141 110 173 178 209 208 160 148 174 172 161 182 190 200 220 233 186 175 209 168 214 174 146 136 122 199 148 252 246 198 187 197 191 186 180 193
194 179 174 175 170 175 163 139 177 195 113 170 172 159 178 179 144 180 182 191 178 167 164 203 173 185 178 189 165 193 134 144 132 121 113 188 110 255 139 195 218 206 201 189 193
197 186 175 174 177 177 167 146 158 93 210 169 149 160 147 173 169 148 178 209 203 148 71 176 182 147 186 89 151 137 91 55 63 77 282 216 167 257 189 203 165 190 182 177 181
183 185 176 172 176 168 163 149 100 159 189 173 179 163 157 152 128 163 178 187 176 154 164 106 36 300 172 87 5 116 106 61 43 307 218 0 184 242 223 215 182 174 169 166 184
181 183 178 170 175 165 159 121 130 180 173 135 132 141 170 142 133 173 147 198 246 149 140 148 195 188 195 169 171 175 152 151 170 188 223 333 224 247 292 260 192 178 172 175 179
164 180 173 159 172 163 148 184 203 166 161 126 105 153 154 175 134 145 188 196 205 187 157 158 164 144 71 44 153 217 181 165 101 33 74 213 282 308 72 106 144 160 167 170 170
155 169 163 165 166 166 170 196 194 175 123 137 150 178 162 174 139 171 177 204 213 190 161 182 116 19 312 110 8 172 156 102 15 134 237 274 251 224 197 191 169 165 168 168 172
127 143 165 162 168 175 193 185 208 276 143 148 155 163 160 177 164 177 179 213 195 202 164 105 98 183 135 205 173 150 187 160 127 145 164 169 254 219 197 183 180 173 174 175 173
66 116 162 164 161 199 190 185 166 132 106 171 134 132 166 167 156 178 183 189 188 175 164 108 107 141 202 230 268 120 203 157 169 211 152 160 262 194 199 183 175 174 177 180 182
50 111 161 164 172 187 158 200 206 126 159 132 134 154 145 162 144 174 154 341 165 166 166 172 119 88 17 354 332 213 205 174 113 85 197 151 253 309 165 156 173 169 179 182 182
41 132 133 174 183 172 174 192 200 167 148 122 113 106 118 158 93 171 130 171 98 128 136 134 140 164 185 194 144 192 194 187 143 129 179 224 209 221 177 171 171 176 181 184 186
37 17 350 160 199 169 182 182 192 165 128 127 32 169 151 139 111 145 116 102 20 144 89 127 192 173 75 130 150 193 182 168 193 219 189 234 199 216 199 186 188 184 181 184 189
80 17 5 358 73 160 185 186 195 176 146 178 134 185 180 155 183 175 139 176 168 302 133 74 175 117 115 10 130 133 197 199 211 220 245 213 265 199 209 193 176 183 179 184 193
96 111 28 346 74 180 185 189 188 165 184 119 173 145 181 167 114 136 158 157 155 149 142 154 146 103 251 9 90 336 214 193 222 218 217 227 239 151 179 184 185 184 189 196 200